Cloquet, MN

6:32 PM CDT on August 24, 2016 (GMT -0500)
Cloquet Carlton County

Weather History for KCOQ - April, 2014

Change the Weather History Date:

Sunday, April 27, 2014

  Actual Average Record
Temperature  
Mean Temperature 32 °F -  
Max Temperature 33 °F 55 °F 71 °F (2007)
Min Temperature 30 °F 31 °F 21 °F (2004)
Degree Days  
Heating Degree Days 34    
Moisture  
Dew Point 26 °F    
Average Humidity 76    
Maximum Humidity 93    
Minimum Humidity 56    
Precipitation  
Precipitation 0.08 in - - ()
Sea Level Pressure  
Sea Level Pressure 29.96 in    
Wind  
Wind Speed 15 mph (East)    
Max Wind Speed 28 mph    
Max Gust Speed 40 mph    
Visibility 9 miles    
Events Snow , Thunderstorm    
Averages and records for this station are not official NWS values.
T = Trace of Precipitation, MM = Missing Value Source: NWS Daily Summary

Daily Weather History Graph

Daily Weather History Graph

Search for Another Location

Airport or City:

Trip Planner

Search our weather history database for the weather conditions in past years. The results will help you decide how hot, cold, wet, or windy it might be!

Date:

Astronomy

Apr. 27, 2014 Rise Set
Actual Time 6:01 AM CDT 8:14 PM CDT
Civil Twilight 5:28 AM CDT 8:47 PM CDT
Nautical Twilight 4:47 AM CDT 9:29 PM CDT
Astronomical Twilight 4:01 AM CDT 10:15 PM CDT
Moon 5:09 AM CDT (4/27) 6:43 PM CDT (4/27)
Length of Visible Light 15h 19m
Length of Day
14h 12m
Waning Crescent, 3% of the Moon is Illuminated
Apr 27
Waning Crescent
Apr 29
New
May 6
First Quarter
May 14
Full
May 21
Last Quarter

Hourly Weather History & Observations

Time (CDT) Temp. Windchill Dew Point Humidity Pressure Visibility Wind Dir Wind Speed Gust Speed Precip Events Conditions
12:17 AM 33.8 °F 24.3 °F 21.2 °F 60% 30.07 in 10.0 mi East 13.8 mph 17.3 mph N/A   Clear
12:37 AM 33.8 °F 24.8 °F 21.2 °F 60% 30.06 in 10.0 mi East 12.7 mph - N/A   Clear
12:56 AM 33.8 °F 24.3 °F 21.2 °F 60% 30.06 in 10.0 mi East 13.8 mph 18.4 mph N/A   Clear
1:17 AM 33.8 °F 23.2 °F 21.2 °F 60% 30.04 in 10.0 mi East 17.3 mph 23.0 mph N/A   Clear
1:37 AM 33.8 °F 23.9 °F 21.2 °F 60% 30.03 in 10.0 mi East 15.0 mph 20.7 mph N/A   Clear
1:56 AM 33.8 °F 23.9 °F 21.2 °F 60% 30.02 in 10.0 mi ENE 15.0 mph 21.9 mph N/A   Mostly Cloudy
2:17 AM 33.8 °F 25.8 °F 21.2 °F 60% 30.00 in 10.0 mi East 10.4 mph 21.9 mph N/A   Scattered Clouds
2:37 AM 33.8 °F 23.9 °F 19.4 °F 56% 29.99 in 10.0 mi East 15.0 mph 21.9 mph N/A   Scattered Clouds
2:56 AM 33.8 °F 25.3 °F 19.4 °F 56% 29.99 in 10.0 mi East 11.5 mph 23.0 mph N/A   Clear
3:17 AM 33.8 °F 24.8 °F 19.4 °F 56% 29.99 in 10.0 mi East 12.7 mph 26.5 mph N/A   Mostly Cloudy
3:37 AM 33.8 °F 23.9 °F 21.2 °F 60% 29.98 in 10.0 mi East 15.0 mph 23.0 mph N/A   Scattered Clouds
3:56 AM 33.8 °F 23.9 °F 21.2 °F 60% 29.99 in 10.0 mi East 15.0 mph 21.9 mph N/A   Scattered Clouds
4:17 AM 32.0 °F 22.1 °F 19.4 °F 60% 29.99 in 10.0 mi East 13.8 mph 25.3 mph N/A   Mostly Cloudy
4:36 AM 32.0 °F 22.1 °F 21.2 °F 64% 29.99 in 10.0 mi East 13.8 mph 21.9 mph N/A   Overcast
4:56 AM 32.0 °F 21.2 °F 21.2 °F 64% 29.99 in 10.0 mi East 16.1 mph 24.2 mph N/A   Overcast
5:17 AM 30.2 °F 18.9 °F 21.2 °F 69% 29.99 in 10.0 mi East 16.1 mph 23.0 mph N/A   Overcast
5:36 AM 30.2 °F 19.3 °F 23.0 °F 75% 29.99 in 10.0 mi East 15.0 mph 23.0 mph N/A   Overcast
5:56 AM 30.2 °F 20.8 °F 24.8 °F 80% 30.00 in 10.0 mi East 11.5 mph 21.9 mph N/A   Overcast
6:17 AM 30.2 °F 21.9 °F 23.0 °F 75% 30.01 in 10.0 mi East 9.2 mph 19.6 mph N/A   Overcast
6:36 AM 30.2 °F 19.3 °F 23.0 °F 75% 29.98 in 10.0 mi East 15.0 mph 21.9 mph N/A   Overcast
6:57 AM 30.2 °F 20.2 °F 21.2 °F 69% 29.99 in 10.0 mi East 12.7 mph 23.0 mph N/A   Overcast
7:16 AM 30.2 °F 18.5 °F 21.2 °F 69% 29.99 in 10.0 mi East 17.3 mph 23.0 mph N/A   Overcast
7:37 AM 32.0 °F 21.6 °F 21.2 °F 64% 29.99 in 10.0 mi East 15.0 mph 21.9 mph N/A   Overcast
7:56 AM 32.0 °F 20.5 °F 19.4 °F 60% 29.98 in 10.0 mi East 18.4 mph 25.3 mph N/A   Overcast
8:16 AM 32.0 °F 20.8 °F 19.4 °F 60% 29.99 in 10.0 mi East 17.3 mph 24.2 mph N/A   Overcast
8:37 AM 32.0 °F 22.1 °F 21.2 °F 64% 30.00 in 10.0 mi East 13.8 mph 25.3 mph N/A   Overcast
8:57 AM 32.0 °F 22.5 °F 21.2 °F 64% 30.00 in 10.0 mi East 12.7 mph 24.2 mph N/A   Overcast
9:16 AM 32.0 °F 21.6 °F 23.0 °F 69% 29.99 in 10.0 mi East 15.0 mph 25.3 mph N/A   Overcast
9:37 AM 30.2 °F 18.5 °F 23.0 °F 75% 29.99 in 10.0 mi East 17.3 mph 28.8 mph N/A   Overcast
9:57 AM 30.2 °F 19.8 °F 24.8 °F 80% 30.00 in 10.0 mi East 13.8 mph 24.2 mph N/A   Overcast
10:16 AM 30.2 °F 20.8 °F 26.6 °F 86% 30.01 in 10.0 mi East 11.5 mph 23.0 mph 0.01 in   Overcast
10:37 AM 30.2 °F 19.8 °F 26.6 °F 86% 30.00 in 10.0 mi East 13.8 mph 21.9 mph 0.02 in   Overcast
10:56 AM 30.2 °F 19.3 °F 26.6 °F 86% 29.99 in 10.0 mi East 15.0 mph 21.9 mph N/A   Overcast
11:17 AM 32.0 °F 22.5 °F 26.6 °F 80% 29.98 in 7.0 mi East 12.7 mph 23.0 mph 0.01 in Thunderstorm Overcast
11:36 AM 32.0 °F 23.6 °F 26.6 °F 80% 29.98 in 7.0 mi East 10.4 mph 20.7 mph 0.02 in   Overcast
11:57 AM 32.0 °F 25.6 °F 28.4 °F 87% 29.99 in 7.0 mi East 6.9 mph - N/A   Overcast
12:17 PM 32.0 °F 23.0 °F 28.4 °F 87% 29.98 in 7.0 mi East 11.5 mph 17.3 mph 0.01 in   Overcast
12:36 PM 32.0 °F 24.2 °F 28.4 °F 87% 29.97 in 10.0 mi East 9.2 mph 16.1 mph 0.01 in   Overcast
12:57 PM 32.0 °F 23.6 °F 28.4 °F 87% 29.98 in 7.0 mi East 10.4 mph 17.3 mph N/A   Overcast
1:17 PM 32.0 °F 23.0 °F 28.4 °F 87% 29.98 in 5.0 mi East 11.5 mph 16.1 mph 0.01 in   Overcast
1:36 PM 32.0 °F 25.6 °F 30.2 °F 93% 29.98 in 5.0 mi East 6.9 mph - 0.01 in   Overcast
1:57 PM 32.0 °F 24.2 °F 30.2 °F 93% 29.96 in 5.0 mi East 9.2 mph - N/A   Overcast
2:17 PM 33.8 °F 25.8 °F 30.2 °F 87% 29.94 in 5.0 mi East 10.4 mph - 0.01 in Snow Light Snow
2:36 PM 33.8 °F 27.0 °F 30.2 °F 87% 29.94 in 7.0 mi East 8.1 mph - 0.01 in Snow Light Snow
3:17 PM 33.8 °F 22.8 °F 30.2 °F 87% 29.92 in 10.0 mi East 18.4 mph 40.3 mph N/A Snow Light Snow
3:36 PM 33.8 °F 21.9 °F 30.2 °F 87% 29.92 in 10.0 mi East 21.9 mph 33.4 mph N/A   Overcast
3:57 PM 33.8 °F 20.8 °F 30.2 °F 87% 29.91 in 7.0 mi East 26.5 mph 36.8 mph N/A   Overcast
4:17 PM 33.8 °F 21.6 °F 30.2 °F 87% 29.90 in 10.0 mi East 23.0 mph 34.5 mph N/A   Overcast
4:36 PM 33.8 °F 21.9 °F 30.2 °F 87% 29.89 in 10.0 mi East 21.9 mph 32.2 mph N/A   Overcast
4:57 PM 33.8 °F 21.3 °F 30.2 °F 87% 29.91 in 10.0 mi East 24.2 mph 31.1 mph N/A   Overcast
5:16 PM 33.8 °F 22.8 °F 28.4 °F 81% 29.90 in 4.0 mi ENE 18.4 mph 31.1 mph N/A Snow Light Snow
5:36 PM 33.8 °F 23.2 °F 28.4 °F 81% 29.89 in 5.0 mi East 17.3 mph 32.2 mph N/A   Overcast
5:57 PM 33.8 °F 21.9 °F 28.4 °F 81% 29.89 in 5.0 mi ENE 21.9 mph 32.2 mph N/A   Overcast
6:16 PM 33.8 °F 21.3 °F 28.4 °F 81% 29.87 in 5.0 mi East 24.2 mph 34.5 mph N/A   Overcast
6:36 PM 33.8 °F 21.9 °F 28.4 °F 81% 29.87 in 10.0 mi ENE 21.9 mph 35.7 mph N/A   Overcast
6:57 PM 33.8 °F 21.9 °F 28.4 °F 81% 29.87 in 10.0 mi ENE 21.9 mph 34.5 mph N/A   Overcast
7:16 PM 33.8 °F 21.6 °F 26.6 °F 75% 29.87 in 10.0 mi East 23.0 mph 34.5 mph N/A Thunderstorm Overcast
7:36 PM 33.8 °F 20.5 °F 26.6 °F 75% 29.88 in 10.0 mi ENE 27.6 mph 38.0 mph N/A   Overcast
7:57 PM 33.8 °F 21.0 °F 26.6 °F 75% 29.90 in 10.0 mi East 25.3 mph 34.5 mph N/A   Overcast
8:16 PM 33.8 °F 23.2 °F 26.6 °F 75% 29.95 in 10.0 mi East 17.3 mph 34.5 mph N/A   Overcast
8:36 PM 33.8 °F 22.5 °F 28.4 °F 81% 29.96 in 5.0 mi East 19.6 mph 33.4 mph N/A   Overcast
8:57 PM 32.0 °F 18.9 °F 30.2 °F 93% 29.91 in 5.0 mi East 24.2 mph 33.4 mph N/A Snow Light Snow
9:17 PM 32.0 °F 21.2 °F 30.2 °F 93% 29.90 in 7.0 mi ENE 16.1 mph 36.8 mph 0.01 in   Overcast
9:36 PM 33.8 °F 22.5 °F 30.2 °F 87% 29.88 in 10.0 mi East 19.6 mph - 0.01 in   Mostly Cloudy
9:57 PM 33.8 °F 23.2 °F 30.2 °F 87% 29.89 in 10.0 mi East 17.3 mph 29.9 mph N/A   Overcast
10:17 PM 33.8 °F 22.8 °F 30.2 °F 87% 29.87 in 10.0 mi East 18.4 mph 27.6 mph N/A   Overcast
10:36 PM 33.8 °F 22.5 °F 30.2 °F 87% 29.87 in 10.0 mi East 19.6 mph 25.3 mph N/A   Overcast
10:56 PM 33.8 °F 23.2 °F 30.2 °F 87% 29.87 in 10.0 mi East 17.3 mph 26.5 mph N/A   Overcast
11:17 PM 33.8 °F 23.2 °F 30.2 °F 87% 29.86 in 10.0 mi East 17.3 mph 31.1 mph N/A   Mostly Cloudy
11:36 PM 33.8 °F 23.2 °F 30.2 °F 87% 29.87 in 10.0 mi East 17.3 mph 27.6 mph N/A   Mostly Cloudy
11:56 PM 33.8 °F 23.9 °F 30.2 °F 87% 29.86 in 10.0 mi East 15.0 mph 24.2 mph N/A   Overcast